Location: Unspecified
(0.0000°N, 0.0000°E)
Time: 14:50:50
(UTC+00:00)

CUTE-I - Pass Details

Date: 17 December 2019
Orbit: 811 x 824 km, 98.7° (Epoch: 14 August)

Event Time Altitude Azimuth Distance (km) Brightness Sun altitude
Rises 19:02:12 0° 200° (SSW) 3,349 ? -15.1°
Reaches altitude 10° 19:05:28 10° 221° (SW) 2,417 ? -15.9°
Maximum altitude 19:08:35 16° 257° (WSW) 2,032 ? -16.6°
Drops below altitude 10° 19:11:44 10° 293° (WNW) 2,415 ? -17.3°
Sets 19:15:01 0° 314° (NW) 3,345 ? -18.0°
